Weather History for KHND - November, 2011

Change the Weather History Date:

Friday, November 18, 2011

  Actual Average (KLAS) Record (KLAS)
Temperature  
Mean Temperature 54 °F 55 °F  
Max Temperature 68 °F 65 °F 79 °F (1949)
Min Temperature 41 °F 45 °F 23 °F (1958)
Degree Days  
Heating Degree Days 10 10  
Month to date heating degree days 119  
Since 1 July heating degree days 158  
Cooling Degree Days 0 0  
Month to date cooling degree days 10  
Year to date cooling degree days 3566  
Growing Degree Days 4 (Base 50)    
Moisture  
Dew Point 27 °F    
Average Humidity 35    
Maximum Humidity 56    
Minimum Humidity 19    
Precipitation  
Precipitation 0.00 in 0.01 in 0.81 in (1986)
Month to date precipitation 0.21  
Year to date precipitation 3.54  
Snow  
Snow 0.00 in 0.00 in T in (1994)
Month to date snowfall 0.0  
Since 1 July snowfall 0.0  
Since 1 September snowfall 0.0  
Snow Depth -    
Sea Level Pressure  
Sea Level Pressure 29.66 in    
Wind  
Wind Speed 11 mph (SSW)    
Max Wind Speed 34 mph    
Max Gust Speed 38 mph    
Visibility 10 miles    
Events      
T = Trace of Precipitation, MM = Missing Value Source: NWS Daily Summary

Daily Weather History Graph

Daily Weather History Graph

Search for Another Location

Airport or City:

Trip Planner

Search our weather history database for the weather conditions in past years. The results will help you decide how hot, cold, wet, or windy it might be!

Date:

Astronomy

Nov. 18, 2011 Rise Set
Actual Time 6:19 AM PST 4:31 PM PST
Civil Twilight 5:52 AM PST 4:58 PM PST
Nautical Twilight 5:21 AM PST 5:29 PM PST
Astronomical Twilight 4:50 AM PST 6:00 PM PST
Moon 11:57 PM PST (11/18) 12:07 PM PST (11/18)
Length of Visible Light 11h 06m
Length of Day
10h 11m
Waning Gibbous, 48% of the Moon is Illuminated
Nov 18
Waning Gibbous
Nov 24
New
Dec 2
First Quarter
Dec 10
Full
Dec 17
Last Quarter

Hourly Weather History & Observations

Time (PST) Temp. Windchill Dew Point Humidity Pressure Visibility Wind Dir Wind Speed Gust Speed Precip Events Conditions
12:56 AM 45.0 °F 41.8 °F 27.1 °F 50% 29.81 in 10.0 mi South 5.8 mph - N/A   Clear
1:56 AM 45.0 °F 43.5 °F 28.0 °F 52% 29.79 in 10.0 mi South 3.5 mph - N/A   Clear
2:56 AM 43.9 °F 42.3 °F 27.1 °F 52% 29.79 in 10.0 mi SE 3.5 mph - N/A   Clear
3:56 AM 45.9 °F 44.6 °F 28.0 °F 50% 29.78 in 10.0 mi South 3.5 mph - N/A   Clear
4:56 AM 43.0 °F - 27.1 °F 54% 29.78 in 10.0 mi Calm Calm - N/A   Clear
5:56 AM 43.0 °F 40.3 °F 28.0 °F 56% 29.78 in 10.0 mi SE 4.6 mph - N/A   Clear
6:56 AM 41.9 °F - 27.1 °F 56% 29.80 in 10.0 mi Calm Calm - N/A   Clear
7:56 AM 47.8 °F - 28.0 °F 46% 29.80 in 10.0 mi SSE 5.8 mph - N/A   Clear
9:56 AM 63.9 °F - 28.0 °F 26% 29.72 in 10.0 mi SSW 20.7 mph - N/A   Clear
10:56 AM 63.9 °F - 28.0 °F 26% 29.68 in 10.0 mi SSW 28.8 mph - N/A   Clear
11:56 AM 66.9 °F - 29.1 °F 24% 29.64 in 10.0 mi SW 26.5 mph - N/A   Clear
12:56 PM 68.9 °F - 28.0 °F 22% 29.60 in 10.0 mi SW 25.3 mph - N/A   Clear
1:56 PM 68.9 °F - 28.0 °F 22% 29.59 in 10.0 mi SSW 23.0 mph - N/A   Clear
2:56 PM 68.9 °F - 26.1 °F 20% 29.55 in 10.0 mi SW 31.1 mph 38.0 mph N/A   Clear
3:56 PM 68.0 °F - 25.2 °F 20% 29.54 in 10.0 mi SW 20.7 mph - N/A   Clear
4:56 PM 64.9 °F - 21.0 °F 19% 29.53 in 10.0 mi SW 25.3 mph - N/A   Clear
5:56 PM 63.0 °F - 24.1 °F 23% 29.54 in 10.0 mi SSW 20.7 mph - N/A   Clear
6:56 PM 61.9 °F - 22.1 °F 22% 29.59 in 10.0 mi Calm Calm - N/A   Clear
7:56 PM 61.0 °F - 23.0 °F 23% 29.58 in 10.0 mi SSW 12.7 mph - N/A   Clear
8:56 PM 59.9 °F - 25.2 °F 26% 29.55 in 10.0 mi SW 20.7 mph - N/A   Clear
9:56 PM 56.8 °F - 29.1 °F 35% 29.57 in 10.0 mi SSW 16.1 mph - N/A   Clear
10:56 PM 54.9 °F - 32.0 °F 42% 29.52 in 10.0 mi SSW 34.5 mph - N/A   Clear
11:56 PM 52.9 °F - 34.9 °F 50% 29.59 in 10.0 mi South 15.0 mph - N/A   Clear